Flag for U.S.A. Weather past 2 weeks in Wichita, Kansas, U.S.A.

Now
70 °F

Mostly cloudy.


Feels Like: 75 °F
Forecast: 67 / 75 °F
Wind: 14 mph from North

Location: Wichita Mid-Continent Airport

Current Time: Jul 7, 2015 at 2:48:51 PM

Latest Report: Jul 7, 2015 at 1:53 PM


Visibility: 6 mi

Pressure: 30.05 "Hg

Humidity: 64%

Dew point: 57 °F

Location of WichitaLocation

Historic Weather in Wichita — Graph

°F

Wichita temperature yesterday

Maximum temperature yesterday: 95 °F (at 1:53 PM)
Minimum temperature yesterday: 72 °F (at 6:53 PM)
Average temperature yesterday: 81 °F

Past Weeks' High & Low Weather Summary

 TemperatureHumidityPressure
High99 °F (Jun 30, 3:53 PM)94% (Jul 6, 10:53 PM)30.10 "Hg (Jul 6, 10:53 PM)
Low64 °F (Jul 4, 6:53 AM)26% (Jun 28, 3:53 PM)29.69 "Hg (Jul 1, 6:53 PM)
Average81 °F59%29.91 "Hg
* Reported Jun 22 1:53 PM — Jul 7 1:53 PM, Wichita, Weather by CustomWeather, © 2015

Note: Actual official high and low records may vary slightly from our data, if they occured in-between our weather recording intervals... More about our weather records

Advertising

Wichita weather history for previous 24 hours

 ConditionsComfort  
Time TempWeatherWind HumidityBarometerVisibility
1:53 PM
Tue, Jul 7
70 °FMostly cloudy.14 mph64%30.05 "Hg6 mi
12:53 PM68 °FMostly cloudy.12 mph73%30.06 "Hg6 mi
11:53 AM68 °FMostly cloudy.15 mph76%30.05 "Hg3 mi
10:53 AM67 °FMostly cloudy.17 mph81%30.05 "Hg2 mi
9:53 AM67 °FLight rain. Fog.9 mph87%30.03 "Hg1 mi
9:00 AM65 °FLight rain. Fog.15 mph91%30.06 "Hg1 mi
8:00 AM65 °FLight rain. Fog.14 mph91%30.04 "Hg1 mi
6:53 AM65 °FRain. Fog.17 mph91%29.99 "Hg1 mi
5:53 AM65 °FLight rain. Fog.18 mph87%29.96 "Hg2 mi
4:53 AM65 °FHeavy rain. Fog.18 mph91%29.96 "Hg1 mi
4:01 AM66 °FLight rain. Fog.16 mph90%30.00 "Hg3 mi
2:53 AM68 °FLight rain. Fog.21 mph87%29.94 "Hg4 mi
1:53 AM68 °FLight rain. Fog.16 mph93%29.94 "Hg2 mi
12:53 AM72 °FHeavy rain. Fog.8 mph93%29.92 "Hg1 mi
11:53 PM
Mon, Jul 6
73 °FLight rain. Fog.7 mph94%29.91 "Hg3 mi
10:53 PM73 °FHeavy rain. Fog.14 mph94%29.92 "Hg1 mi
9:53 PM74 °FMostly cloudy.9 mph91%29.89 "Hg10 mi
8:53 PM75 °FLight rain. Fog.12 mph88%29.85 "Hg5 mi
7:53 PM73 °FMore clouds than sun.7 mph90%29.84 "Hg10 mi
6:53 PM72 °FLight rain. Mostly cloudy.5 mph91%29.83 "Hg10 mi
6:03 PM75 °FStrong thunderstorms. Fog.5 mph89%29.85 "Hg3 mi
5:53 PM75 °FStrong thunderstorms. Fog.3 mph90%29.82 "Hg3 mi
5:00 PM77 °FStrong thunderstorms. Fog.23 mph88%29.77 "Hg1 mi
3:53 PM90 °FCloudy.22 mph57%29.71 "Hg10 mi
2:53 PM93 °FLight rain. Broken clouds.20 mph47%29.76 "Hg10 mi
Weather by CustomWeather, © 2015

See weather overviewHow to use our weather pages